EW4337 Weather Reports


Display with metric or nautical units.
time (UTC)temp
F
wind
direction
speed
MPH
gust
MPH
rain 1hr
in
rain 24hr
in
rain mn
in
humidity
%
barometer
mb
20211209033702 33 139 7.0 15.0 0.00 0.00 0.00 92 1001.4
20211209032702 33 130 6.0 13.0 0.00 0.00 0.00 92 1001.4
20211209031702 33 131 6.0 14.0 0.00 0.00 0.00 92 1001.4
20211209030702 33 141 11.0 20.0 0.00 0.00 0.00 92 1001.3
20211209025702 33 150 10.0 17.0 0.00 0.00 0.00 92 1001.2
20211209024702 33 161 8.0 13.0 0.00 0.00 0.00 92 1001.2
20211209023703 33 148 9.0 16.0 0.00 0.00 0.00 92 1001.2
20211209022702 34 144 8.0 17.0 0.00 0.00 0.00 92 1001.3
20211209021702 34 203 3.0 17.0 0.00 0.00 0.00 92 1001.3
20211209020702 34 171 7.0 33.0 0.00 0.00 0.00 92 1001.3
20211209015702 33 144 3.0 14.0 0.00 0.01 0.00 91 1001.3
20211209014703 34 147 6.0 15.0 0.00 0.01 0.00 91 1001.5
20211209013704 34 127 4.0 14.0 0.00 0.01 0.00 91 1001.4
20211209012702 34 141 3.0 10.0 0.00 0.01 0.00 91 1001.3
20211209011704 34 146 4.0 12.0 0.00 0.01 0.00 91 1001.1
20211209010704 34 151 2.0 13.0 0.00 0.02 0.00 91 1001.1
20211209005703 34 142 3.0 13.0 0.00 0.02 0.00 91 1001.0
20211209004702 34 142 3.0 7.0 0.00 0.02 0.00 91 1001.0
20211209003704 34 153 3.0 9.0 0.00 0.02 0.00 91 1000.9
20211209002703 34 167 6.0 15.0 0.00 0.02 0.00 91 1001.0
20211209001702 34 181 9.0 23.0 0.00 0.02 0.00 91 1001.0
20211209000702 34 158 9.0 20.0 0.00 0.03 0.00 91 1000.8
20211208235702 34 168 9.0 18.0 0.00 0.03 0.00 91 1000.8
20211208234702 34 145 6.0 17.0 0.00 0.04 0.00 91 1000.9
20211208233702 34 160 9.0 16.0 0.00 0.05 0.00 91 1001.0
20211208232702 34 176 6.0 15.0 0.00 0.06 0.00 91 1001.1
20211208231703 34 139 7.0 17.0 0.00 0.08 0.00 91 1001.0
20211208230702 34 148 9.0 13.0 0.00 0.08 0.00 90 1000.9
20211208225703 34 144 5.0 13.0 0.00 0.09 0.09 90 1001.0
20211208224702 34 138 4.0 12.0 0.00 0.09 0.09 90 1000.9
20211208223704 35 125 6.0 14.0 0.00 0.09 0.09 90 1000.6
20211208222703 35 141 5.0 13.0 0.00 0.10 0.09 90 1000.6
20211208221703 35 133 3.0 9.0 0.00 0.10 0.09 89 1000.5
20211208220703 35 142 2.0 12.0 0.00 0.10 0.09 89 1000.5
20211208215703 36 160 2.0 10.0 0.00 0.10 0.09 89 1000.4
20211208214703 36 130 1.0 6.0 0.00 0.10 0.09 89 1000.4
20211208213704 36 164 3.0 9.0 0.00 0.10 0.09 89 1000.4
20211208212703 36 186 3.0 15.0 0.00 0.10 0.09 89 1000.3
20211208211702 36 191 4.0 17.0 0.00 0.10 0.09 89 1000.2
20211208210703 36 171 2.0 20.0 0.00 0.10 0.09 89 1000.3
20211208205703 36 192 7.0 14.0 0.00 0.10 0.09 89 1000.3
20211208204702 36 163 6.0 18.0 0.00 0.10 0.09 89 1000.2
20211208203704 36 191 5.0 17.0 0.00 0.10 0.09 89 1000.1
20211208202703 36 179 5.0 20.0 0.00 0.10 0.09 89 1000.0
20211208201702 36 178 7.0 17.0 0.00 0.10 0.09 89 1000.0
20211208200703 36 159 8.0 20.0 0.00 0.10 0.09 89 1000.0
20211208195702 36 133 6.0 20.0 0.00 0.10 0.09 89 999.8
20211208194702 36 130 7.0 17.0 0.00 0.10 0.09 89 999.8
20211208193703 36 149 7.0 17.0 0.00 0.10 0.09 89 999.7
20211208192703 36 142 7.0 15.0 0.00 0.10 0.09 88 999.6
20211208191703 37 152 7.0 15.0 0.00 0.10 0.09 88 999.5
20211208190703 37 134 6.0 15.0 0.00 0.10 0.09 88 999.5
20211208185704 37 138 9.0 17.0 0.00 0.10 0.09 87 999.2
20211208184704 38 154 6.0 20.0 0.00 0.10 0.09 87 999.2
20211208183703 38 167 8.0 17.0 0.00 0.10 0.09 87 999.1
20211208182703 38 162 9.0 20.0 0.00 0.10 0.09 86 999.0
20211208181705 38 140 9.0 21.0 0.00 0.10 0.09 86 998.9
20211208180705 38 164 7.0 21.0 0.00 0.10 0.09 87 998.8
20211208175704 38 148 10.0 21.0 0.00 0.10 0.09 87 998.6
20211208174703 39 177 4.0 20.0 0.00 0.10 0.09 86 998.5
20211208173704 39 178 6.0 22.0 0.00 0.10 0.09 86 998.4
20211208172703 39 164 7.0 28.0 0.00 0.10 0.09 86 998.5
20211208171704 39 147 10.0 20.0 0.00 0.10 0.09 86 998.4
20211208170703 39 159 5.0 14.0 0.00 0.10 0.09 86 998.3
20211208165704 39 137 6.0 21.0 0.00 0.10 0.09 86 998.2
20211208164703 39 122 5.0 20.0 0.00 0.10 0.09 86 998.2
20211208163703 40 166 10.0 23.0 0.00 0.10 0.09 86 998.0
20211208162705 40 155 7.0 21.0 0.00 0.10 0.09 85 998.1
20211208161704 40 185 11.0 24.0 0.00 0.10 0.09 85 998.0
20211208160703 40 189 10.0 26.0 0.00 0.10 0.09 85 998.0
20211208155703 40 171 10.0 24.0 0.00 0.10 0.09 85 997.8
20211208154704 40 177 10.0 21.0 0.00 0.10 0.09 84 997.9
20211208153704 40 171 6.0 26.0 0.00 0.10 0.09 85 997.8
20211208152705 41 155 5.0 23.0 0.00 0.10 0.09 84 997.7
20211208151704 41 171 9.0 25.0 0.00 0.10 0.09 84 997.6
20211208150703 41 169 9.0 26.0 0.00 0.10 0.09 84 997.4
20211208145704 41 170 11.0 29.0 0.00 0.10 0.09 84 997.4
20211208144704 41 160 6.0 17.0 0.00 0.10 0.09 84 997.3
20211208143704 41 149 7.0 15.0 0.00 0.10 0.09 84 997.0
20211208142703 41 157 7.0 20.0 0.00 0.10 0.09 83 996.9
20211208141703 42 172 14.0 33.0 0.00 0.10 0.09 83 996.9
20211208140703 42 169 11.0 28.0 0.00 0.10 0.09 83 996.8
20211208135704 42 137 18.0 30.0 0.00 0.10 0.09 83 996.9
20211208134704 42 148 10.0 24.0 0.00 0.10 0.09 84 996.8
20211208133705 42 160 7.0 28.0 0.00 0.10 0.09 84 996.7
20211208132704 42 146 7.0 20.0 0.00 0.10 0.09 84 996.7
20211208131705 42 180 6.0 22.0 0.00 0.10 0.09 84 996.5
20211208130703 42 167 8.0 22.0 0.00 0.10 0.09 84 996.3
20211208125705 42 148 7.0 21.0 0.00 0.10 0.09 85 996.2
20211208124704 42 169 12.0 26.0 0.00 0.10 0.09 85 996.2
20211208123704 42 153 10.0 24.0 0.00 0.10 0.09 85 996.2
20211208122704 42 161 5.0 21.0 0.00 0.10 0.09 85 996.2
20211208121704 42 136 9.0 23.0 0.00 0.10 0.09 85 996.0
20211208120703 42 164 6.0 21.0 0.00 0.10 0.09 85 995.9
20211208115705 42 125 9.0 28.0 0.00 0.10 0.09 84 995.9
20211208114704 42 147 7.0 23.0 0.00 0.10 0.09 84 995.9
20211208113704 42 192 8.0 25.0 0.00 0.10 0.09 84 995.6
20211208112703 42 161 13.0 28.0 0.00 0.10 0.09 84 995.3
20211208111704 42 192 11.0 30.0 0.00 0.10 0.09 85 995.1
20211208110704 42 167 9.0 40.0 0.00 0.10 0.09 85 995.0
20211208105704 42 198 13.0 36.0 0.00 0.10 0.09 85 995.1
20211208104704 42 168 13.0 26.0 0.00 0.10 0.09 86 995.1
20211208103704 41 185 7.0 29.0 0.00 0.10 0.09 86 995.1
20211208102704 41 163 18.0 38.0 0.00 0.10 0.09 86 995.4
20211208101705 41 150 17.0 29.0 0.00 0.10 0.09 87 995.3
20211208100705 41 148 14.0 35.0 0.00 0.10 0.09 88 995.4
20211208095704 41 150 14.0 25.0 0.00 0.10 0.09 88 995.5
20211208094705 40 186 17.0 35.0 0.00 0.10 0.09 89 995.5
20211208093705 40 166 17.0 31.0 0.00 0.10 0.09 89 995.1
20211208092705 40 163 15.0 37.0 0.00 0.10 0.09 89 994.9
20211208091704 40 155 12.0 31.0 0.00 0.10 0.09 90 994.7
20211208090704 40 180 12.0 32.0 0.00 0.10 0.09 90 994.7
20211208085704 40 187 6.0 20.0 0.00 0.10 0.09 90 994.7
20211208084705 40 167 9.0 22.0 0.00 0.10 0.09 91 994.7
20211208083705 40 164 12.0 24.0 0.00 0.10 0.09 91 994.5
20211208082706 39 170 13.0 28.0 0.00 0.10 0.09 91 994.4
20211208081705 39 179 14.0 33.0 0.00 0.10 0.09 92 994.4
20211208080705 39 164 11.0 26.0 0.00 0.10 0.09 92 994.3
20211208075702 39 162 14.0 30.0 0.00 0.10 0.09 92 994.3
20211208074701 39 176 11.0 24.0 0.00 0.10 0.09 92 994.1
20211208073703 39 184 13.0 29.0 0.00 0.10 0.09 93 994.0
20211208072701 39 148 10.0 31.0 0.00 0.10 0.09 92 994.0
20211208071702 39 173 9.0 25.0 0.00 0.10 0.09 93 993.8
20211208070702 39 171 13.0 24.0 0.00 0.10 0.09 93 993.6
20211208065702 39 184 13.0 32.0 0.00 0.10 0.09 93 993.5
20211208064703 40 172 12.0 24.0 0.00 0.10 0.09 93 993.4
20211208063701 40 169 13.0 26.0 0.00 0.10 0.09 93 993.3
20211208062702 40 159 11.0 22.0 0.00 0.10 0.09 92 993.3
20211208061701 40 164 10.0 20.0 0.00 0.10 0.09 93 993.2
20211208060704 40 162 6.0 26.0 0.00 0.10 0.09 93 993.1
20211208055702 40 149 9.0 21.0 0.00 0.10 0.09 93 992.8
20211208054701 40 160 9.0 23.0 0.00 0.10 0.09 93 992.7
20211208053701 40 140 10.0 21.0 0.00 0.10 0.09 93 992.7
20211208052702 40 163 2.0 25.0 0.00 0.10 0.09 93 992.7
20211208051701 40 145 8.0 20.0 0.00 0.10 0.09 93 992.6
20211208050703 40 148 15.0 26.0 0.00 0.10 0.09 93 992.4
20211208045701 40 160 11.0 28.0 0.00 0.10 0.09 93 992.5
20211208044704 39 145 16.0 26.0 0.00 0.10 0.09 93 992.3
20211208043701 39 149 10.0 21.0 0.00 0.10 0.09 93 992.4
20211208042701 39 178 6.0 20.0 0.00 0.10 0.09 93 992.4
20211208041701 39 173 6.0 20.0 0.00 0.10 0.09 93 992.4
20211208040701 39 163 9.0 24.0 0.00 0.10 0.09 93 992.3
20211208035702 39 144 13.0 26.0 0.00 0.10 0.09 92 992.2
20211208034701 39 143 12.0 24.0 0.00 0.10 0.09 92 992.1